[[{"header":{"parameterUnit":"m.s-1","parameterCategory":1,"la1":30.2991,"la2":30.254,"lo1":-89.0895,"lo2":-89.0444,"dy":0.0017,"dx":0.0017,"nx":28,"ny":28,"refTime":"2023-11-21T03:00:00:Z","depth":0,"parameterNumber":2,"parameterNumberName":"U-component_of_WINDS"},"data":[0,0,0,0,0,0,0,0,0,0,0,0,0,0,0,0,0,0,0,0,0,0,0,0,0,0,0,0,0,0,0,0,0,0,0,0,0,0,0,0,0,0,0,0,0,0,0,0,0,0,0,0,0,0,0,0,0,0,1.7656,1.7656,0,1.7658,1.7658,1.7658,1.7629,1.7628,1.7627,1.7626,1.763,1.763,1.7631,0,0,0,0,0,0,0,0,0,0,0,0,0,1.7628,1.7629,1.7656,1.7656,1.7656,1.7658,1.7658,1.7658,1.7629,1.7628,1.7627,1.7626,1.7629,1.763,1.7631,0,0,0,0,0,0,0,0,0,0,0,0,0,1.7636,1.7629,1.7656,1.7642,1.764,1.7658,1.7658,1.7658,1.7629,1.7628,1.7627,1.7626,1.7629,1.763,1.7631,1.7663,0,0,1.7635,1.7636,0,0,0,0,0,0,0,0,1.7636,1.7637,1.7644,1.7643,1.7641,1.7642,1.765,1.766,1.7629,1.7633,1.7626,1.7625,1.7635,1.7635,1.7639,1.7663,1.7664,1.7635,1.7636,1.7637,1.7637,0,0,0,0,0,0,0,1.7635,1.7637,1.7657,1.7644,1.7642,1.7636,1.7636,1.7651,1.7641,1.7633,1.7631,1.7632,1.7634,1.7637,1.7638,1.7664,1.7635,1.7636,1.7637,1.7638,1.7717,1.7718,0,0,0,0,0,0,1.7637,1.7637,1.7657,1.7657,1.7636,1.7637,1.7637,1.7643,1.7641,1.7639,1.7633,1.763,1.7636,1.7637,1.7638,1.7677,1.7637,1.7638,1.7638,1.7715,1.7717,1.7719,0,0,0,0,0,0,1.7636,1.7639,1.7657,1.7646,1.7648,1.7639,1.7646,1.7644,1.7647,1.764,1.7638,1.7638,1.7635,1.7637,1.7658,1.7676,1.7638,1.7639,1.7714,1.7716,1.7718,1.7753,0,0,0,0,0,0,1.7635,1.7639,1.765,1.7647,1.7649,1.7675,1.7647,1.7645,1.7649,1.7646,1.7645,1.7643,1.7634,1.7656,1.7659,1.7677,1.764,1.7712,1.7715,1.7717,1.775,1.7756,1.7761,0,0,0,0,0,1.7634,1.766,1.7651,1.7653,1.7663,1.7677,1.7678,1.7666,1.7651,1.7663,1.7659,1.7644,1.7674,1.7658,1.7661,1.768,1.7711,1.7714,1.7717,1.7748,1.7755,1.7761,0,0,0,0,0,0,1.7665,1.7659,1.7649,1.7674,1.7676,1.7672,1.7686,1.7674,1.7681,1.7677,1.7663,1.7663,1.7687,1.7686,1.7669,1.7712,1.769,1.7694,1.7712,1.7719,1.7724,1.7724,1.7641,0,0,0,0,0,1.7675,1.7686,1.768,1.7702,1.7704,1.7695,1.7701,1.7692,1.7694,1.7694,1.7692,1.7694,1.7705,1.7712,1.772,1.775,1.775,1.7765,1.777,1.7775,1.7778,1.7795,1.7802,1.7729,1.7729,1.7728,0,0,1.7694,1.7693,1.77,1.7709,1.7709,1.7722,1.7696,1.771,1.772,1.7696,1.7716,1.7715,1.7717,1.7743,1.7754,1.7743,1.7798,1.7778,1.7782,1.7783,1.7799,1.7806,1.7812,1.7731,1.773,1.773,0,0,1.7737,1.7737,1.7756,1.7757,1.7759,1.7753,1.7758,1.7756,1.7754,1.7774,1.7757,1.7769,1.7786,1.7789,1.7793,1.7839,1.7825,1.7842,1.787,1.7887,1.7893,1.7898,1.7915,1.7921,1.7846,1.7846,1.7846,0,1.7762,1.778,1.7767,1.7783,1.7788,1.7768,1.7788,1.779,1.7795,1.7799,1.7786,1.7809,1.7809,1.7835,1.7847,1.785,1.7856,1.7842,1.7893,1.7898,1.7902,1.7919,1.7925,1.7848,1.7847,1.7847,1.7847,0,1.7811,1.7824,1.7839,1.7844,1.7851,1.7868,1.7859,1.7868,1.7859,1.7855,1.7876,1.7876,1.7885,1.789,1.7882,1.7917,1.791,1.7895,1.7872,1.7912,1.7927,1.7933,1.7851,1.785,1.7849,1.7849,0,0,1.7872,1.7871,1.7877,1.788,1.7881,1.7891,1.7908,1.7917,1.7925,1.793,1.7945,1.7961,1.7948,1.7952,1.7944,1.7959,1.7997,1.7942,1.7942,1.7953,1.8037,1.8048,1.8055,1.7988,1.7989,1.799,1.8037,0,1.7914,1.7943,1.7933,1.7964,1.7976,1.7959,1.7974,1.7977,1.7974,1.7985,1.7982,1.7994,1.7975,1.7978,1.7992,1.7989,1.8013,1.7986,1.8003,1.8003,1.8003,1.8063,1.8074,1.8118,1.8042,1.8043,1.8044,0,1.7967,1.7974,1.8005,1.8006,1.8011,1.8025,1.8033,1.8044,1.8047,1.8044,1.805,1.8039,1.8057,1.8035,1.8061,1.8042,1.8049,1.8049,1.805,1.8051,1.8026,1.8066,1.8132,1.8139,1.8053,1.8052,1.8052,0,1.8009,1.8026,1.8048,1.8051,1.8052,1.8062,1.8063,1.8066,1.8072,1.808,1.8084,1.8094,1.81,1.8108,1.81,1.8084,1.8128,1.8104,1.8127,1.8127,1.8136,1.8136,1.8204,1.814,1.814,1.814,1.814,0,1.8058,1.8078,1.8067,1.808,1.8103,1.8092,1.8115,1.8114,1.8117,1.813,1.8116,1.8129,1.8118,1.8131,1.8125,1.8148,1.815,1.8149,1.8147,1.815,1.8151,1.8155,1.8152,1.8142,1.8141,1.8141,1.8141,0,1.8108,1.8102,1.8125,1.8124,1.8124,1.8141,1.8141,1.8154,1.8151,1.8168,1.8171,1.8166,1.818,1.8174,1.8188,1.8185,1.8215,1.8209,1.8213,1.8212,1.8235,1.8233,1.8309,1.8318,1.8247,1.8248,1.8249,0,1.814,1.8155,1.8157,1.8165,1.8167,1.818,1.8187,1.8177,1.8185,1.8191,1.8204,1.8217,1.8226,1.825,1.8248,1.826,1.8254,1.828,1.8256,1.8259,1.8256,1.8255,1.8257,1.8285,1.8286,1.8286,1.8287,0,1.8197,1.8193,1.8204,1.8214,1.8222,1.823,1.8236,1.8244,1.8234,1.8244,1.8259,1.8266,1.8282,1.8296,1.8306,1.8308,1.8297,1.8295,1.8301,1.8304,1.8307,1.8306,1.8227,1.8293,1.8292,1.8292,1.8291,1.8291,1.8239,1.8253,1.8256,1.8269,1.8273,1.8279,1.8292,1.829,1.8302,1.8314,1.8308,1.8325,1.833,1.8343,1.8346,1.836,1.835,1.8358,1.8361,1.8363,1.8366,1.8304,1.8362,1.8362,1.8362,1.8361,1.8361,0,1.8296,1.8298,1.8309,1.8319,1.8329,1.8318,1.8324,1.8334,1.8349,1.8355,1.8365,1.8382,1.8396,1.8395,1.8408,1.8419,1.8415,1.8423,1.8422,1.8423,1.8374,1.8368,1.8427,1.8427,1.8427,1.8427,1.8427,1.8427,1.8327,1.8349,1.8346,1.8371,1.8373,1.8389,1.8394,1.8401,1.8405,1.8425,1.8436,1.8436,1.844,1.8453,1.8465,1.8465,1.847,1.8481,1.8479,1.8433,1.8427,1.842,1.8415,1.8482,1.8482,1.8527,1.8527,1.8528]},{"header":{"parameterUnit":"m.s-1","parameterCategory":1,"la1":30.2991,"la2":30.254,"lo1":-89.0895,"lo2":-89.0444,"dy":0.0017,"dx":0.0017,"nx":28,"ny":28,"refTime":"2023-11-21T03:00:00:Z","depth":0,"parameterNumber":3,"parameterNumberName":"V-component_of_WINDS"},"data":[0,0,0,0,0,0,0,0,0,0,0,0,0,0,0,0,0,0,0,0,0,0,0,0,0,0,0,0,0,0,0,0,0,0,0,0,0,0,0,0,0,0,0,0,0,0,0,0,0,0,0,0,0,0,0,0,0,0,-5.6114,-5.6115,0,-5.6197,-5.6198,-5.6199,-5.6188,-5.6187,-5.6186,-5.6185,-5.6264,-5.6267,-5.6271,0,0,0,0,0,0,0,0,0,0,0,0,0,-5.5944,-5.5947,-5.6114,-5.6115,-5.6116,-5.6197,-5.6198,-5.6199,-5.6189,-5.6187,-5.6185,-5.6184,-5.6263,-5.6267,-5.6271,0,0,0,0,0,0,0,0,0,0,0,0,0,-5.6021,-5.5948,-5.6114,-5.6121,-5.6122,-5.6196,-5.6198,-5.6199,-5.6189,-5.6187,-5.6185,-5.6183,-5.6262,-5.6267,-5.6272,-5.6342,0,0,-5.6287,-5.6289,0,0,0,0,0,0,0,0,-5.6017,-5.6027,-5.6119,-5.612,-5.6122,-5.618,-5.6167,-5.6247,-5.619,-5.6163,-5.6185,-5.6182,-5.6238,-5.6244,-5.6264,-5.6346,-5.6349,-5.6287,-5.629,-5.6293,-5.6294,0,0,0,0,0,0,0,-5.6011,-5.6024,-5.6146,-5.612,-5.6122,-5.6119,-5.6127,-5.6182,-5.621,-5.6166,-5.6165,-5.6175,-5.6238,-5.6259,-5.6266,-5.6351,-5.6287,-5.6292,-5.6295,-5.6297,-5.6497,-5.6499,0,0,0,0,0,0,-5.6005,-5.6019,-5.6144,-5.6149,-5.6064,-5.6123,-5.6133,-5.6164,-5.621,-5.6215,-5.6177,-5.6175,-5.6252,-5.626,-5.6269,-5.6356,-5.6293,-5.6297,-5.63,-5.6495,-5.6498,-5.65,0,0,0,0,0,0,-5.6001,-5.6016,-5.614,-5.6084,-5.61,-5.6128,-5.6163,-5.6166,-5.6188,-5.6219,-5.6223,-5.6194,-5.625,-5.6262,-5.6325,-5.6359,-5.63,-5.6304,-5.6492,-5.6496,-5.6499,-5.6531,0,0,0,0,0,0,-5.5996,-5.6015,-5.6042,-5.6085,-5.6103,-5.6196,-5.6165,-5.6169,-5.6197,-5.6195,-5.6235,-5.624,-5.625,-5.6318,-5.633,-5.6365,-5.6308,-5.6489,-5.6494,-5.6498,-5.6527,-5.6535,-5.6542,0,0,0,0,0,-5.599,-5.6046,-5.6044,-5.6059,-5.6138,-5.6198,-5.6209,-5.622,-5.62,-5.6228,-5.6248,-5.6239,-5.6353,-5.6324,-5.6338,-5.6375,-5.6487,-5.6493,-5.6498,-5.6524,-5.6534,-5.6542,0,0,0,0,0,0,-5.6005,-5.6052,-5.605,-5.6122,-5.6157,-5.6197,-5.6232,-5.623,-5.6269,-5.6265,-5.6276,-5.6285,-5.635,-5.6368,-5.6335,-5.6447,-5.6417,-5.6426,-5.6433,-5.6442,-5.645,-5.6444,-5.6312,0,0,0,0,0,-5.6017,-5.6063,-5.6101,-5.6161,-5.6179,-5.6203,-5.6229,-5.6235,-5.6271,-5.6285,-5.631,-5.6344,-5.6387,-5.6416,-5.6457,-5.653,-5.6539,-5.6562,-5.657,-5.6576,-5.6583,-5.6625,-5.6636,-5.6517,-5.6517,-5.6517,0,0,-5.6041,-5.6073,-5.6101,-5.6165,-5.6192,-5.624,-5.6215,-5.6265,-5.63,-5.6292,-5.6355,-5.6374,-5.6412,-5.6482,-5.6513,-5.6499,-5.6618,-5.6582,-5.6587,-5.6591,-5.6631,-5.6642,-5.6652,-5.6521,-5.652,-5.652,0,0,-5.611,-5.6138,-5.6192,-5.6222,-5.6265,-5.6281,-5.6294,-5.6336,-5.6349,-5.6412,-5.6408,-5.6449,-5.6524,-5.6552,-5.6576,-5.6659,-5.6653,-5.6672,-5.6712,-5.6752,-5.6761,-5.677,-5.6801,-5.6811,-5.6679,-5.6679,-5.6679,0,-5.6134,-5.6207,-5.622,-5.6272,-5.6301,-5.6299,-5.6354,-5.638,-5.6434,-5.6454,-5.6438,-5.6534,-5.6559,-5.6636,-5.6656,-5.6675,-5.6691,-5.6668,-5.6759,-5.6768,-5.6776,-5.6805,-5.6817,-5.6681,-5.6681,-5.6681,-5.6681,0,-5.6235,-5.6286,-5.6324,-5.6379,-5.6412,-5.6465,-5.6486,-5.6518,-5.6521,-5.6539,-5.6604,-5.6635,-5.6684,-5.6703,-5.6706,-5.6781,-5.6771,-5.6757,-5.6727,-5.6789,-5.6817,-5.6828,-5.6684,-5.6684,-5.6683,-5.6683,0,0,-5.6314,-5.6379,-5.6393,-5.6419,-5.6468,-5.6506,-5.6559,-5.661,-5.6637,-5.6675,-5.672,-5.6785,-5.6774,-5.6801,-5.6807,-5.6843,-5.6909,-5.6825,-5.6826,-5.684,-5.6995,-5.7006,-5.7018,-5.6905,-5.6907,-5.6909,-5.6992,0,-5.6389,-5.6485,-5.65,-5.6585,-5.6632,-5.6632,-5.6678,-5.6713,-5.6731,-5.6773,-5.6792,-5.6839,-5.682,-5.6837,-5.6872,-5.6893,-5.694,-5.6887,-5.6947,-5.6949,-5.6938,-5.7033,-5.7044,-5.7121,-5.7003,-5.7005,-5.7006,0,-5.6488,-5.6532,-5.6622,-5.6668,-5.6688,-5.673,-5.6779,-5.6819,-5.6858,-5.6869,-5.6902,-5.6904,-5.6959,-5.6928,-5.7004,-5.6968,-5.6993,-5.7008,-5.7011,-5.7017,-5.6981,-5.7043,-5.7146,-5.7158,-5.7023,-5.7022,-5.702,0,-5.6539,-5.662,-5.6685,-5.6707,-5.6761,-5.6791,-5.6814,-5.6852,-5.6883,-5.6925,-5.6944,-5.6991,-5.7017,-5.7053,-5.7068,-5.7044,-5.7144,-5.7113,-5.7155,-5.7155,-5.7176,-5.7174,-5.7285,-5.7191,-5.7191,-5.719,-5.719,0,-5.6621,-5.6676,-5.6709,-5.6749,-5.6812,-5.6828,-5.6889,-5.6911,-5.6946,-5.699,-5.6991,-5.7032,-5.7049,-5.7093,-5.7105,-5.7167,-5.7178,-5.7188,-5.7191,-5.7189,-5.7188,-5.7206,-5.7201,-5.7193,-5.7193,-5.7192,-5.7192,0,-5.6687,-5.6711,-5.6783,-5.6829,-5.6842,-5.6887,-5.6926,-5.6964,-5.6983,-5.7039,-5.7053,-5.7082,-5.7134,-5.7153,-5.7215,-5.7223,-5.7296,-5.7293,-5.7283,-5.7284,-5.7325,-5.7321,-5.7452,-5.747,-5.7363,-5.7364,-5.7365,0,-5.6739,-5.6782,-5.6834,-5.6866,-5.6891,-5.694,-5.6972,-5.699,-5.7023,-5.7073,-5.7106,-5.7158,-5.7201,-5.7284,-5.7309,-5.7357,-5.7357,-5.7399,-5.7364,-5.7361,-5.7359,-5.7357,-5.7362,-5.7406,-5.7407,-5.7408,-5.7408,0,-5.6828,-5.6839,-5.6885,-5.6938,-5.6977,-5.7018,-5.7057,-5.7082,-5.7106,-5.7143,-5.7198,-5.7231,-5.7297,-5.7349,-5.7398,-5.7421,-5.7419,-5.742,-5.7432,-5.7431,-5.7424,-5.7429,-5.7302,-5.7417,-5.7416,-5.7415,-5.7415,-5.7414,-5.6889,-5.6929,-5.6973,-5.7026,-5.7058,-5.7096,-5.7136,-5.7162,-5.7208,-5.7264,-5.7272,-5.733,-5.737,-5.7438,-5.7463,-5.7509,-5.7497,-5.7514,-5.7519,-5.7523,-5.7527,-5.7416,-5.7517,-5.7517,-5.7517,-5.7517,-5.7517,0,-5.698,-5.7009,-5.7057,-5.7115,-5.7157,-5.7154,-5.7199,-5.7233,-5.7286,-5.7325,-5.7368,-5.7431,-5.7482,-5.7514,-5.7565,-5.7595,-5.7596,-5.7608,-5.7606,-5.7612,-5.7534,-5.7519,-5.7607,-5.7607,-5.7607,-5.7607,-5.7607,-5.7607,-5.7032,-5.7099,-5.7115,-5.7199,-5.7227,-5.7287,-5.7313,-5.7348,-5.738,-5.7452,-5.7495,-5.7516,-5.7552,-5.7606,-5.7653,-5.7661,-5.768,-5.7694,-5.77,-5.7627,-5.7617,-5.7608,-5.7594,-5.7697,-5.7697,-5.7775,-5.7776,-5.7776]}]]